Wind_Speed
8 9 9 7 7 7 9 11 11 10 5 4 4 6 5 4 2 1 2 3 3 3 3 3 3 3 2 1 1 1 2 3 4 5 6 7 8 8 8 9 9 9 9 9 9 8 8 7 7
11 11 11 10 8 9 9 12 11 11 7 5 5 6 5 4 2 2 3 4 3 3 3 3 4 3 3 2 2 2 3 4 4 6 7 8 8 9 10 10 10 10 10 10 10 9 9 8 7
14 13 13 12 10 10 12 11 10 12 11 9 6 6 6 5 3 4 5 5 3 3 3 3 4 4 3 3 3 4 4 4 5 6 7 8 9 10 10 10 10 10 10 11 11 10 10 9 8
15 15 14 13 12 12 13 12 12 15 16 12 9 7 8 7 6 5 5 5 4 3 3 4 4 4 4 4 4 5 5 5 6 6 7 8 10 11 11 11 11 11 11 11 11 11 11 10 10
17 16 15 14 14 15 15 15 15 16 19 15 12 10 11 10 8 5 4 4 3 3 3 4 4 4 5 5 5 5 5 6 7 8 9 9 10 11 11 12 12 13 13 13 13 13 13 12 11
18 16 15 13 14 16 16 17 17 19 18 18 15 13 13 10 8 6 5 4 3 3 3 4 4 5 5 5 5 6 6 7 8 9 10 11 12 12 13 14 14 15 15 15 15 15 15 14 13
17 15 14 13 13 14 15 17 18 21 23 22 18 15 13 12 11 8 6 5 4 3 3 4 4 5 6 6 6 7 8 9 9 10 11 13 14 15 15 16 17 17 17 17 17 17 17 16 15
15 15 15 15 16 16 16 17 21 23 24 24 20 16 15 13 10 9 8 6 4 4 4 4 5 6 6 7 8 9 10 11 12 12 13 14 15 16 17 18 18 19 19 20 20 20 20 19 18
14 14 16 18 20 19 18 20 22 23 24 22 20 15 14 15 11 10 10 7 5 5 5 5 7 7 8 9 10 11 13 14 15 15 16 16 17 18 18 19 20 20 20 21 21 21 21 21 21
13 13 14 17 19 20 21 22 24 25 27 25 24 19 16 15 13 11 11 9 7 6 6 6 7 8 10 11 12 13 14 16 17 18 18 18 19 19 19 19 19 19 20 20 21 21 21 23 23
10 10 12 15 17 19 21 23 26 28 27 25 22 18 18 15 14 12 11 10 8 6 6 7 8 10 10 12 13 14 15 16 17 18 18 19 20 20 18 18 18 18 18 18 19 19 21 22 23
7 7 10 13 16 19 22 24 26 28 29 27 22 20 21 17 15 14 10 9 8 7 7 8 9 10 11 12 13 14 14 15 17 17 18 18 18 18 17 17 17 18 17 17 18 18 19 20 22
8 8 9 11 13 17 20 23 24 26 25 24 23 20 18 17 15 12 12 10 8 7 7 8 9 10 11 12 13 14 14 15 15 16 16 16 15 15 15 15 16 16 16 16 17 18 19 19 20
9 10 11 10 11 14 16 17 19 21 22 21 20 18 17 18 15 10 12 10 8 7 8 8 10 11 12 12 12 13 13 13 14 14 14 14 14 14 13 13 14 15 15 16 17 18 18 19 20
10 11 12 12 12 13 15 17 17 18 18 18 18 17 16 15 13 10 10 9 8 8 8 9 10 11 12 12 12 12 12 12 12 12 12 13 12 12 12 13 14 15 16 17 17 17 18 18 19
10 12 13 14 15 15 16 15 16 15 16 15 14 13 13 11 11 10 10 9 8 8 9 10 9 9 10 10 10 10 9 9 10 11 12 12 12 12 13 14 15 16 17 16 17 18 18 18 18
12 14 16 16 16 15 15 15 14 13 13 12 11 10 9 10 11 10 9 8 7 7 8 8 8 8 8 8 8 8 9 9 10 10 11 11 12 13 13 14 15 15 16 16 16 17 18 18 17
14 16 17 16 16 15 14 14 14 14 11 7 6 6 7 9 9 9 8 8 7 7 7 7 7 7 7 7 8 8 9 9 10 10 11 12 12 12 13 13 14 14 14 14 15 15 16 16 16
15 16 17 15 15 14 14 14 14 14 10 4 1 3 6 7 9 9 8 8 7 7 6 6 6 6 6 7 8 8 9 9 9 10 10 11 11 11 12 12 12 13 14 14 14 14 15 15 15
15 16 15 14 14 14 14 14 13 12 8 6 2 3 4 5 8 9 8 7 7 6 4 4 5 5 6 7 8 8 8 9 9 9 10 11 11 11 12 12 13 13 14 14 14 15 15 15 16
14 15 15 15 15 14 13 12 12 10 6 4 3 3 5 6 7 7 6 5 5 4 3 3 3 4 5 6 7 7 7 8 8 8 9 10 11 12 12 13 13 14 14 15 15 15 16 16 17
13 13 12 12 13 14 12 11 10 10 8 4 3 4 6 7 7 6 5 4 2 2 1 2 2 3 4 5 6 6 7 7 8 8 9 10 11 12 13 13 14 15 16 16 16 17 17 17 18
11 11 9 9 11 10 9 9 9 9 9 6 5 6 6 7 6 6 4 3 2 1 1 1 2 3 4 5 6 6 7 7 7 8 9 10 11 12 13 14 15 16 17 17 17 17 18 18 19
10 8 8 8 8 9 7 8 8 8 9 7 7 6 7 6 6 5 4 3 2 0 1 1 2 3 4 5 5 6 7 8 8 9 10 11 12 13 14 15 16 17 18 19 19 19 20 20 21
10 9 9 8 9 9 7 5 6 6 7 7 7 6 5 4 5 4 3 2 1 1 2 2 3 4 4 5 6 7 7 8 9 10 11 12 13 14 15 16 17 19 20 20 21 21 21 22 22
9 9 10 10 10 10 8 3 4 5 5 6 6 5 4 3 3 2 1 0 1 2 2 3 3 4 4 5 6 7 8 9 10 11 12 13 14 15 16 17 18 20 21 21 22 23 24 24 24
8 9 10 10 10 9 6 4 3 2 3 4 5 3 2 2 2 0 1 2 2 2 3 3 4 4 5 6 7 8 9 10 11 12 13 14 16 17 18 19 20 21 22 24 25 26 26 26 27
11 11 11 12 12 10 10 7 6 3 2 2 3 3 1 1 1 1 2 2 3 3 3 3 4 4 5 6 8 9 10 11 12 13 14 16 17 18 19 20 22 23 25 26 28 28 29 29 29
14 15 14 14 14 13 11 10 8 7 6 4 4 3 1 1 1 2 2 3 3 4 4 4 5 5 6 7 9 10 11 13 14 15 16 17 18 20 21 22 24 26 28 29 30 30 31 31 32
16 16 16 16 15 14 14 12 11 10 9 7 5 4 3 2 2 3 3 3 4 5 5 6 6 7 8 9 11 12 13 14 15 16 17 19 20 22 23 25 27 28 29 31 32 33 33 33 34
Wind_Direction
292 289 287 290 295 297 288 288 289 282 268 268 267 303 321 317 305 263 232 208 200 178 180 190 191 184 187 209 246 303 312 313 315 317 318 319 321 322 323 323 323 322 321 321 321 323 326 331 338
289 286 287 290 294 292 285 286 289 285 268 253 249 284 300 286 254 236 223 208 199 175 177 189 202 203 211 229 248 268 288 295 298 302 305 308 310 311 313 312 313 313 313 312 312 312 314 317 324
287 286 288 291 291 288 289 296 287 283 275 265 253 273 272 269 258 242 226 203 190 180 180 188 202 209 218 233 250 264 279 287 291 297 300 303 303 304 304 305 304 304 305 304 304 304 306 307 310
285 285 288 291 288 285 293 302 315 295 281 270 274 280 269 267 259 247 228 202 191 193 193 200 207 212 217 230 252 266 275 283 286 291 295 299 299 298 297 298 299 299 299 299 299 299 299 300 301
283 283 286 291 286 289 292 299 303 296 286 285 286 288 285 283 270 239 219 195 193 200 209 215 217 223 232 243 254 265 276 282 284 286 291 294 296 294 291 292 293 294 295 295 295 295 294 294 294
281 281 282 286 282 287 288 290 294 291 290 294 290 286 287 282 257 232 223 225 201 202 216 224 230 237 247 256 263 271 279 285 287 288 288 289 293 293 288 288 288 288 289 290 290 290 289 289 288
278 277 274 271 266 275 281 284 284 285 292 292 288 285 282 279 259 230 222 211 200 201 217 233 246 254 256 265 274 278 280 284 288 290 290 290 294 294 289 285 284 284 283 284 285 286 286 284 283
274 269 261 255 253 265 272 279 282 286 288 285 281 286 280 277 257 234 226 209 204 215 229 254 258 264 267 273 281 285 285 287 288 289 290 289 291 293 289 284 281 281 280 279 280 281 281 279 278
273 262 253 250 250 257 265 272 277 282 287 283 282 276 268 263 246 229 220 206 209 224 245 262 265 270 277 282 286 288 287 287 286 287 286 284 286 287 286 282 280 279 277 274 276 277 276 275 274
267 261 256 255 255 258 264 271 275 280 285 281 281 272 268 259 239 230 224 210 209 230 256 271 274 275 280 284 287 287 286 286 286 286 285 283 283 284 285 281 280 281 278 275 275 275 276 272 270
270 263 256 257 262 266 270 271 275 279 281 281 281 271 261 253 235 238 225 211 214 231 256 270 273 277 282 283 284 286 287 288 287 286 287 286 285 284 284 282 282 284 282 279 278 277 276 272 269
299 286 271 268 269 270 272 274 276 278 280 279 278 272 259 247 235 236 222 219 219 231 251 264 269 275 281 284 286 288 288 290 288 286 287 286 284 281 281 282 283 283 282 278 277 276 276 274 270
351 338 311 300 289 282 283 282 281 283 279 279 275 267 249 236 238 225 221 219 225 234 251 265 271 276 281 283 285 287 290 292 288 286 287 287 286 282 279 280 282 281 279 278 276 277 278 277 273
12 6 345 326 316 303 299 301 293 289 285 283 279 267 244 231 236 235 227 225 228 244 260 266 274 277 279 283 284 286 290 289 288 285 287 289 288 286 283 284 283 281 280 280 279 278 278 277 274
9 9 354 342 335 324 315 311 306 300 290 283 276 267 246 230 229 221 221 220 228 248 260 270 278 282 285 289 289 293 296 295 292 290 293 297 296 293 288 290 289 286 285 283 281 280 278 278 277
2 0 354 343 339 336 331 322 315 313 310 294 276 255 234 226 214 214 220 220 236 251 261 270 281 288 293 296 296 300 305 307 304 300 299 301 302 298 296 297 295 293 291 289 285 282 281 279 277
359 357 351 345 346 345 341 338 331 328 320 307 281 259 221 206 199 200 208 217 235 251 261 269 281 290 299 301 304 309 313 314 311 307 304 306 306 305 303 302 300 298 296 293 289 285 281 278 277
356 351 349 346 349 346 349 349 344 341 339 325 288 255 212 197 199 197 208 217 232 250 262 275 283 287 297 304 310 313 317 317 312 307 307 307 310 310 308 307 306 305 302 299 294 292 287 282 278
341 340 340 343 348 350 353 354 357 357 5 23 322 225 215 202 197 199 204 211 228 245 265 279 283 290 298 306 312 314 319 319 315 314 314 315 318 317 315 314 313 311 310 307 302 297 293 288 283
327 334 338 339 344 347 351 354 1 7 21 44 67 158 174 190 185 191 201 210 222 238 259 273 282 292 299 307 314 317 319 317 317 319 320 322 323 322 320 320 319 317 314 311 308 303 298 294 289
325 329 339 343 343 349 351 0 6 9 11 15 40 129 149 161 163 162 173 184 205 223 255 274 289 301 309 318 324 323 322 322 324 325 326 327 326 325 325 324 323 322 321 318 314 309 303 298 292
314 322 334 348 348 346 353 4 15 21 25 37 68 105 123 135 136 140 147 163 187 228 256 282 302 312 321 330 330 327 327 328 329 330 331 332 332 330 328 326 325 324 323 321 317 313 308 303 298
311 321 332 348 349 349 1 15 23 30 36 57 86 110 115 120 122 125 134 146 156 171 247 296 308 320 325 329 332 333 335 337 338 337 336 335 334 332 331 329 327 325 323 321 318 315 311 305 301
307 311 323 334 341 343 355 12 27 42 49 61 88 105 116 120 122 123 129 136 135 150 296 302 317 322 324 328 333 339 343 344 344 343 341 338 335 333 332 330 328 327 325 321 318 316 312 308 303
298 298 303 313 330 335 353 19 40 54 62 69 80 92 103 111 132 134 134 127 76 335 307 315 320 322 324 328 336 342 344 345 345 344 343 341 338 336 332 331 330 329 327 324 321 318 316 312 308
290 286 292 303 322 326 339 13 25 38 61 63 71 86 97 104 134 137 138 32 320 296 296 307 313 315 320 327 333 337 340 342 344 343 342 340 339 337 335 333 331 330 329 327 324 321 318 314 311
288 279 284 290 300 311 324 333 339 17 40 56 53 61 81 95 119 109 304 296 291 284 288 297 302 308 316 325 330 332 335 337 338 337 338 338 337 336 335 334 332 331 330 328 325 323 320 316 313
284 282 277 279 281 283 291 296 304 301 338 21 30 30 23 73 72 302 288 282 284 286 287 289 296 309 319 324 325 328 330 331 332 333 335 335 335 333 332 331 330 328 327 326 324 322 320 317 315
280 281 276 276 276 277 281 287 293 295 310 323 337 356 319 237 246 282 277 272 279 284 286 291 303 314 319 321 320 322 325 326 326 327 329 330 330 330 329 327 326 325 325 325 324 321 319 317 316
278 276 272 274 271 272 274 280 284 289 297 306 319 325 316 275 259 262 266 272 280 289 295 302 309 313 315 315 315 317 318 319 320 321 322 322 323 324 323 322 322 323 323 324 324 322 320 318 316
Height
5922 5921 5921 5921 5922 5921 5919 5918 5916 5912 5910 5909 5909 5910 5911 5914 5915 5916 5914 5913 5912 5912 5912 5913 5913 5914 5914 5915 5915 5915 5915 5915 5915 5915 5914 5914 5914 5913 5913 5912 5912 5911 5911 5910 5910 5909 5909 5908 5908
5921 5920 5920 5920 5920 5919 5918 5916 5913 5910 5908 5907 5907 5908 5911 5912 5912 5913 5912 5912 5911 5911 5912 5912 5913 5913 5914 5914 5914 5915 5915 5914 5914 5914 5913 5913 5913 5912 5912 5911 5911 5910 5910 5909 5909 5908 5908 5908 5908
5919 5918 5919 5918 5917 5917 5915 5913 5910 5908 5906 5904 5903 5906 5909 5910 5910 5911 5911 5910 5910 5911 5911 5911 5912 5912 5913 5913 5913 5913 5913 5913 5913 5913 5912 5912 5911 5911 5910 5910 5910 5909 5909 5908 5908 5907 5907 5907 5907
5917 5917 5917 5916 5915 5914 5912 5910 5908 5906 5903 5901 5901 5905 5908 5909 5909 5909 5909 5909 5909 5909 5910 5910 5911 5911 5912 5912 5912 5912 5912 5912 5912 5911 5911 5910 5910 5909 5909 5908 5908 5908 5907 5907 5906 5906 5906 5905 5905
5914 5914 5915 5914 5912 5911 5909 5907 5905 5904 5901 5898 5900 5902 5905 5906 5907 5906 5907 5907 5908 5908 5909 5910 5910 5910 5910 5910 5910 5910 5910 5910 5910 5909 5909 5908 5908 5907 5907 5907 5906 5906 5906 5905 5905 5904 5904 5904 5903
5912 5912 5912 5912 5910 5907 5905 5903 5900 5900 5898 5898 5898 5900 5903 5904 5905 5904 5904 5905 5906 5907 5908 5908 5908 5908 5908 5908 5908 5908 5908 5908 5908 5907 5907 5906 5905 5905 5905 5904 5904 5904 5903 5903 5902 5902 5901 5901 5901
5909 5909 5909 5908 5906 5903 5901 5899 5898 5897 5898 5898 5897 5898 5901 5902 5902 5901 5902 5903 5904 5905 5906 5906 5906 5906 5906 5906 5906 5906 5906 5905 5905 5904 5904 5903 5903 5902 5902 5901 5901 5901 5900 5900 5900 5899 5899 5898 5898
5905 5906 5905 5904 5901 5899 5898 5897 5896 5895 5895 5895 5895 5895 5898 5899 5899 5898 5899 5901 5902 5903 5904 5904 5904 5905 5904 5904 5904 5903 5903 5903 5902 5901 5901 5900 5900 5899 5898 5898 5897 5897 5897 5897 5896 5896 5895 5895 5895
5902 5903 5901 5900 5898 5896 5895 5894 5894 5892 5891 5891 5892 5891 5893 5895 5896 5896 5896 5898 5899 5901 5901 5901 5902 5902 5902 5901 5901 5901 5900 5899 5899 5898 5897 5897 5896 5895 5894 5894 5893 5893 5893 5893 5893 5892 5892 5891 5891
5899 5899 5898 5897 5895 5893 5892 5891 5890 5889 5888 5887 5887 5887 5889 5889 5891 5893 5893 5894 5897 5898 5899 5899 5899 5899 5899 5899 5898 5898 5897 5896 5895 5894 5894 5893 5892 5891 5890 5890 5889 5889 5888 5888 5888 5888 5887 5887 5887
5896 5896 5895 5893 5892 5890 5889 5888 5886 5885 5885 5884 5883 5884 5885 5885 5887 5890 5891 5889 5893 5895 5896 5896 5896 5896 5896 5895 5895 5894 5893 5893 5891 5890 5890 5889 5888 5887 5886 5886 5885 5885 5884 5884 5884 5883 5883 5882 5882
5894 5893 5891 5891 5890 5888 5886 5884 5882 5881 5880 5880 5879 5879 5880 5881 5882 5884 5886 5888 5890 5891 5892 5893 5893 5893 5893 5892 5892 5891 5890 5889 5887 5886 5886 5884 5884 5883 5883 5882 5881 5881 5880 5880 5880 5879 5879 5878 5878
5893 5892 5890 5888 5887 5885 5883 5881 5879 5876 5874 5874 5874 5874 5875 5877 5877 5879 5881 5884 5887 5888 5889 5890 5890 5890 5890 5889 5889 5888 5887 5885 5884 5883 5882 5881 5880 5879 5878 5878 5877 5877 5877 5876 5876 5876 5875 5874 5873
5892 5891 5888 5887 5885 5883 5880 5877 5875 5872 5870 5869 5869 5869 5870 5872 5874 5875 5878 5881 5884 5886 5887 5887 5887 5887 5887 5887 5886 5885 5884 5882 5881 5879 5878 5877 5876 5876 5875 5874 5874 5873 5873 5872 5872 5871 5871 5870 5869
5891 5890 5888 5885 5883 5880 5878 5875 5872 5869 5867 5866 5865 5865 5865 5869 5871 5872 5875 5878 5881 5882 5884 5884 5884 5884 5883 5883 5883 5882 5880 5879 5877 5876 5875 5874 5873 5872 5872 5871 5870 5869 5869 5868 5868 5867 5866 5866 5864
5890 5888 5886 5884 5881 5878 5876 5873 5870 5867 5863 5861 5860 5860 5862 5865 5868 5870 5873 5875 5878 5880 5881 5881 5881 5880 5880 5880 5879 5878 5877 5876 5874 5873 5872 5871 5870 5869 5868 5867 5866 5865 5865 5864 5863 5862 5862 5861 5860
5888 5885 5883 5882 5879 5876 5874 5871 5867 5863 5859 5856 5855 5856 5859 5863 5865 5868 5871 5873 5876 5877 5878 5878 5878 5878 5877 5877 5876 5876 5875 5873 5872 5870 5869 5868 5867 5866 5865 5864 5863 5861 5860 5859 5859 5858 5857 5856 5856
5885 5883 5881 5880 5878 5875 5871 5869 5865 5860 5856 5853 5854 5855 5857 5860 5861 5865 5868 5871 5873 5875 5876 5876 5876 5875 5875 5875 5874 5874 5872 5871 5870 5868 5867 5866 5864 5863 5862 5861 5859 5858 5856 5855 5854 5853 5852 5852 5852
5884 5882 5881 5879 5876 5874 5870 5868 5864 5860 5856 5854 5855 5856 5857 5859 5862 5864 5867 5869 5871 5873 5873 5873 5873 5873 5873 5873 5872 5871 5870 5869 5868 5866 5864 5863 5862 5860 5859 5858 5856 5855 5853 5852 5850 5849 5848 5848 5847
5883 5881 5880 5878 5876 5873 5870 5867 5864 5860 5858 5857 5856 5856 5858 5859 5861 5864 5865 5868 5870 5871 5871 5872 5872 5872 5871 5871 5870 5869 5868 5867 5865 5863 5862 5860 5859 5857 5856 5855 5853 5851 5850 5848 5847 5845 5844 5843 5843
5882 5880 5879 5877 5875 5872 5870 5867 5864 5862 5860 5858 5857 5857 5858 5859 5861 5862 5864 5866 5868 5869 5870 5870 5870 5870 5869 5869 5868 5867 5866 5864 5863 5861 5860 5858 5856 5855 5853 5851 5850 5848 5847 5845 5843 5842 5840 5839 5838
5880 5879 5878 5876 5873 5871 5870 5867 5865 5862 5860 5859 5858 5857 5858 5859 5861 5862 5865 5866 5867 5868 5868 5868 5868 5868 5868 5867 5866 5865 5864 5862 5861 5859 5858 5856 5854 5852 5850 5849 5847 5845 5844 5842 5840 5838 5836 5835 5834
5878 5877 5876 5875 5873 5871 5869 5867 5865 5862 5860 5858 5857 5857 5858 5860 5861 5862 5864 5865 5866 5866 5866 5866 5866 5866 5866 5865 5864 5863 5862 5860 5859 5857 5856 5854 5852 5850 5848 5846 5844 5842 5840 5838 5836 5834 5832 5830 5829
5876 5875 5874 5873 5872 5871 5869 5867 5865 5862 5860 5858 5858 5858 5859 5860 5861 5862 5863 5864 5865 5865 5865 5865 5865 5864 5864 5863 5862 5861 5860 5858 5857 5855 5853 5851 5849 5847 5845 5843 5841 5838 5836 5834 5832 5829 5827 5825 5823
5874 5873 5873 5871 5870 5869 5868 5866 5865 5863 5861 5860 5859 5859 5859 5860 5860 5862 5863 5863 5863 5864 5864 5863 5863 5863 5862 5861 5860 5859 5858 5856 5854 5852 5851 5849 5847 5845 5842 5840 5838 5835 5832 5830 5827 5824 5822 5820 5818
5871 5871 5871 5869 5868 5867 5866 5865 5865 5863 5861 5860 5860 5860 5860 5860 5860 5861 5862 5862 5862 5862 5862 5862 5861 5861 5860 5859 5858 5857 5855 5854 5852 5850 5848 5846 5844 5842 5839 5837 5834 5831 5828 5825 5822 5819 5816 5814 5811
5869 5869 5868 5867 5866 5865 5865 5865 5864 5862 5861 5860 5860 5859 5859 5859 5859 5860 5860 5861 5861 5861 5860 5860 5860 5859 5858 5857 5856 5854 5853 5851 5849 5848 5846 5843 5841 5839 5836 5833 5830 5827 5824 5821 5817 5814 5811 5808 5805
5868 5867 5866 5865 5864 5863 5862 5862 5862 5861 5860 5859 5859 5859 5859 5858 5858 5858 5859 5859 5859 5859 5858 5858 5858 5857 5856 5854 5853 5852 5850 5848 5846 5845 5842 5840 5837 5835 5832 5829 5826 5823 5820 5816 5812 5809 5805 5801 5798
5865 5865 5863 5862 5861 5860 5859 5861 5860 5859 5858 5858 5858 5857 5857 5857 5857 5857 5857 5857 5857 5856 5856 5856 5855 5854 5853 5852 5850 5849 5847 5845 5843 5841 5839 5836 5834 5831 5828 5825 5821 5818 5814 5811 5807 5803 5799 5794 5791
5860 5860 5859 5859 5858 5857 5856 5859 5857 5856 5855 5855 5855 5855 5854 5855 5855 5855 5855 5854 5854 5853 5853 5852 5851 5850 5849 5848 5847 5846 5844 5842 5840 5838 5835 5833 5830 5827 5824 5820 5817 5813 5809 5805 5800 5796 5791 5787 5783